Flag for India

Past Weather in Chittorgarh, Rajasthan, India — Yesterday and Last 2 Weeks

Now
95 °F

Scattered clouds.


Feels Like: 105 °F
Forecast: 88 / 77 °F
Wind: 7 mph from Southeast

Location: Jaipur / Sanganer

Current Time: Jul 6, 2020 at 11:43:59 am

Latest Report: Jul 6, 2020 at 11:00 am


Visibility: 3 mi

Pressure: 29.50 "Hg (27.83 "Hg at 524m altitude)

Humidity: 50%

Dew Point: 73 °F

Location of ChittorgarhLocation

Past Weather in Chittorgarh — Graph

°F

Chittorgarh Temperature Yesterday

Maximum temperature yesterday: 99 °F (at 3:00 pm)
Minimum temperature yesterday: 84 °F (at 2:30 am)
Average temperature yesterday: 91 °F

High & Low Weather Summary for the Past Weeks

 TemperatureHumidityPressure
High108 °F (Jul 3, 2:30 pm)100% (Jul 1, 8:00 pm)29.68 "Hg (Jul 1, 8:00 pm)
Low79 °F (Jul 1, 8:00 pm)24% (Jul 2, 7:00 pm)29.36 "Hg (Jul 4, 5:00 pm)
Average93 °F52%29.55 "Hg
* Reported Jun 21 9:30 am — Jul 6 10:00 am, Chittorgarh. Weather by CustomWeather, © 2020

Note: Actual official high and low records may vary slightly from our data, if they occured in-between our weather recording intervals... More about our weather records

Chittorgarh Weather History for the Previous 24 Hours

Scroll right to see more
 ConditionsComfort  
Time TempWeatherWind HumidityBarometerVisibility
10:00 am
Mon, Jul 6
95 °FHaze.2 mph53%29.50 "Hg2 mi
9:30 am93 °FHaze.7 mph56%29.50 "Hg2 mi
8:30 am90 °FHaze.2 mph63%29.50 "Hg2 mi
8:00 am90 °FScattered clouds.2 mph63%29.47 "Hg2 mi
7:30 am88 °FScattered clouds.No wind62%29.47 "Hg2 mi
7:00 am84 °FScattered clouds.3 mph70%29.47 "Hg2 mi
6:30 am84 °FScattered clouds.No wind70%29.45 "Hg2 mi
5:30 am84 °FPassing clouds.5 mph70%29.47 "Hg2 mi
5:00 am84 °FPassing clouds.5 mph70%29.47 "Hg2 mi
4:30 am84 °FPassing clouds.5 mph70%29.47 "Hg2 mi
4:00 am84 °FPassing clouds.5 mph70%29.47 "Hg2 mi
3:30 am84 °FPassing clouds.8 mph70%29.47 "Hg2 mi
3:00 am84 °FPassing clouds.8 mph70%29.50 "Hg2 mi
2:30 am84 °FPassing clouds.8 mph70%29.50 "Hg2 mi
2:00 am86 °FPassing clouds.8 mph70%29.50 "Hg2 mi
1:30 am86 °FPassing clouds.6 mph70%29.50 "Hg2 mi
1:00 am86 °FPassing clouds.6 mph70%29.50 "Hg2 mi
12:30 am86 °FPassing clouds.5 mph75%29.50 "Hg2 mi
12:00 am86 °FPassing clouds.7 mph75%29.50 "Hg2 mi
11:30 pm
Sun, Jul 5
91 °FPassing clouds.10 mph59%29.50 "Hg2 mi
11:00 pm91 °FPassing clouds.8 mph56%29.50 "Hg2 mi
10:30 pm93 °FPassing clouds.6 mph47%29.47 "Hg2 mi
10:00 pm93 °FPassing clouds.7 mph44%29.47 "Hg2 mi
9:30 pm95 °FPassing clouds.8 mph41%29.47 "Hg2 mi
9:00 pm95 °FPassing clouds.7 mph39%29.45 "Hg2 mi
8:30 pm95 °FPassing clouds.7 mph39%29.45 "Hg2 mi
8:00 pm97 °FPassing clouds.5 mph37%29.45 "Hg2 mi
7:30 pm97 °FScattered clouds.6 mph37%29.42 "Hg2 mi
7:00 pm97 °FScattered clouds.6 mph39%29.42 "Hg2 mi
6:00 pm99 °FScattered clouds.7 mph37%29.42 "Hg3 mi
5:30 pm99 °FScattered clouds.6 mph37%29.42 "Hg3 mi
5:00 pm99 °FScattered clouds.8 mph37%29.42 "Hg3 mi
4:30 pm99 °FScattered clouds.6 mph37%29.42 "Hg3 mi
4:00 pm99 °FScattered clouds.6 mph37%29.45 "Hg3 mi
3:30 pm99 °FScattered clouds.6 mph37%29.45 "Hg3 mi
3:00 pm99 °FScattered clouds.8 mph37%29.45 "Hg3 mi
2:30 pm97 °FScattered clouds.12 mph39%29.47 "Hg3 mi
2:00 pm97 °FScattered clouds.9 mph42%29.47 "Hg3 mi
1:30 pm95 °FScattered clouds.12 mph44%29.50 "Hg3 mi
1:00 pm95 °FScattered clouds.12 mph44%29.50 "Hg3 mi
12:30 pm93 °FScattered clouds.12 mph49%29.53 "Hg3 mi
12:00 pm91 °FScattered clouds.6 mph52%29.53 "Hg3 mi
11:30 am91 °FScattered clouds.12 mph52%29.56 "Hg3 mi
11:00 am91 °FScattered clouds.6 mph56%29.56 "Hg3 mi
Weather by CustomWeather, © 2020

See weather overview